Date,TemperatureHighF,TemperatureAvgF,TemperatureLowF,DewpointHighF,DewpointAvgF,DewpointLowF,HumidityHigh,HumidityAvg,HumidityLow,PressureMaxIn,PressureMinIn,WindSpeedMaxMPH,WindSpeedAvgMPH,GustSpeedMaxMPH,PrecipitationSumIn
2013-11-1,64.5,62.3,60.6,62.5,61.1,59.7,99,96,92,29.85,29.60,27,8,27,0.13
2013-11-2,66.2,60.9,56.4,63.1,56.1,45.9,99,85,61,29.80,29.59,18,3,18,0.01
2013-11-3,56.6,49.0,37.7,47.7,38.9,24.6,86,69,46,30.41,29.80,23,8,24,0.00
2013-11-4,50.9,42.7,35.5,41.1,32.6,25.4,77,67,61,30.60,30.41,24,8,24,0.00
2013-11-5,56.3,53.8,50.9,47.6,45.2,39.6,77,72,67,30.61,30.46,19,7,19,0.00
2013-11-6,61.8,56.4,46.2,58.6,51.8,44.1,96,85,73,30.48,30.08,17,4,17,0.00
2013-11-7,62.0,56.3,44.5,61.5,54.4,40.2,99,93,81,30.08,29.77,29,6,29,0.45
2013-11-8,50.9,45.0,39.3,42.1,32.7,28.0,86,63,43,30.26,29.96,32,11,32,0.00
2013-11-9,53.1,46.1,37.6,42.7,33.6,26.6,78,62,41,30.33,30.02,26,6,26,0.00
2013-11-10,63.2,52.9,45.9,40.6,36.8,31.4,73,55,33,30.11,29.85,37,12,37,0.00
2013-11-11,54.9,49.2,41.1,43.5,35.1,29.0,73,59,42,30.26,29.99,25,8,25,0.00
2013-11-12,52.5,41.2,32.1,41.6,29.9,18.6,83,64,50,30.31,29.95,33,9,33,0.00
2013-11-13,39.9,34.3,28.9,25.4,18.4,12.7,71,53,33,30.40,30.30,27,8,27,0.00
2013-11-14,55.7,45.0,33.9,34.1,25.7,13.0,74,50,19,30.34,30.22,26,8,26,0.00
2013-11-15,54.4,49.7,44.7,45.7,38.1,32.7,82,64,51,30.27,30.18,16,4,16,0.00
2013-11-16,52.1,48.6,44.5,50.6,45.5,38.6,96,89,73,30.34,30.23,13,2,13,0.18
2013-11-17,61.7,54.4,49.4,60.7,53.7,48.3,99,98,94,30.23,29.80,10,2,11,0.01
2013-11-18,66.9,58.7,52.4,57.8,43.5,30.4,100,62,27,29.81,29.66,31,9,33,0.22
2013-11-19,52.4,45.4,36.6,34.4,28.7,25.8,67,52,42,30.33,29.80,20,8,31,0.00
2013-11-20,46.2,39.8,33.4,36.5,29.2,25.0,75,66,57,30.55,30.33,20,7,20,0.00
2013-11-21,54.9,50.7,46.1,49.3,43.1,33.8,92,76,61,30.55,30.38,18,4,18,0.00
2013-11-22,58.9,53.6,48.3,54.7,51.4,46.1,97,92,80,30.38,29.93,20,3,20,0.08
2013-11-23,53.7,45.4,35.0,53.0,31.8,16.8,98,61,38,30.05,29.92,37,10,37,0.00
2013-11-24,34.7,28.1,24.7,20.4,7.7,2.1,61,42,30,30.44,30.02,44,14,44,0.00
2013-11-25,36.1,29.7,22.5,23.2,15.9,8.0,70,57,41,30.55,30.36,23,6,23,0.00
2013-11-26,54.5,43.3,35.2,53.8,33.0,20.0,98,69,43,30.38,29.66,22,7,22,0.44
2013-11-27,58.1,46.2,34.0,58.0,44.7,22.5,100,95,63,29.84,29.34,40,15,40,0.71
2013-11-28,37.9,33.4,30.0,24.1,20.7,17.7,69,60,46,30.49,29.84,36,10,36,0.00
2013-11-29,42.3,35.2,30.5,25.7,23.0,18.1,78,62,41,30.70,30.48,12,2,15,0.00
2013-11-30,45.2,36.9,28.5,42.2,30.3,21.3,91,77,69,30.70,30.33,17,5,17,0.00